Flag for U.S.A. Weather past 2 weeks in Ontario, California, U.S.A.

Now
78 °F

Passing clouds.


Feels Like: 80 °F
Forecast: 62 / 84 °F
Wind: 14 mph from Southwest

Location: Ontario International Airport

Current Time: Sep 18, 2014 at 7:32:08 PM

Latest Report: Sep 18, 2014 at 6:53 PM


Visibility: 10 mi

Pressure: 29.78 "Hg

Humidity: 56%

Dew point: 61 °F

Location of OntarioLocation

Historic Weather in Ontario — Graph

°F

Ontario temperature yesterday

Maximum temperature yesterday: 100 °F (at 12:53 PM)
Minimum temperature yesterday: 76 °F (at 11:53 PM)
Average temperature yesterday: 88 °F

Past Weeks' High & Low Weather Summary

 TemperatureHumidityPressure
High107 °F (Sep 14, 2:53 PM)87% (Sep 4, 1:53 AM)29.90 "Hg (Sep 4, 1:53 AM)
Low63 °F (Sep 5, 5:53 AM)13% (Sep 13, 1:53 PM)29.62 "Hg (Sep 14, 2:53 PM)
Average83 °F42%29.76 "Hg
* Reported Sep 3 5:53 PM — Sep 18 5:53 PM, Ontario, Weather by CustomWeather, © 2014

Note: Actual official high and low records may vary slightly from our data, if they occured in-between our weather recording intervals... More about our weather records

Advertising

Ontario weather history for previous 24 hours

 ConditionsComfort  
Time TempWeatherWind HumidityBarometerVisibility
5:53 PM
Sep 18
81 °FPassing clouds.13 mph53%29.76 "Hg10 mi
4:53 PM84 °FPassing clouds.12 mph48%29.75 "Hg10 mi
3:53 PM85 °FPassing clouds.13 mph45%29.75 "Hg10 mi
2:53 PM85 °FPassing clouds.14 mph43%29.77 "Hg10 mi
1:53 PM84 °FPassing clouds.12 mph43%29.79 "Hg10 mi
12:53 PM82 °FPassing clouds.9 mph44%29.81 "Hg10 mi
11:53 AM80 °FPassing clouds.7 mph44%29.83 "Hg10 mi
10:53 AM77 °FPassing clouds.10 mph48%29.84 "Hg10 mi
9:53 AM74 °FSunny.6 mph62%29.85 "Hg10 mi
8:53 AM71 °FSunny.6 mph71%29.85 "Hg10 mi
7:53 AM70 °FPassing clouds.6 mph71%29.83 "Hg10 mi
6:53 AM67 °FPassing clouds.6 mph81%29.80 "Hg10 mi
5:53 AM68 °FPassing clouds.10 mph78%29.78 "Hg10 mi
4:53 AM69 °FClear.7 mph70%29.76 "Hg10 mi
3:53 AM70 °FClear.5 mph68%29.75 "Hg10 mi
2:53 AM71 °FClear.5 mph68%29.75 "Hg10 mi
1:53 AM73 °FClear.5 mph64%29.75 "Hg10 mi
12:53 AM74 °FClear.7 mph62%29.75 "Hg10 mi
11:53 PM
Sep 17
76 °FPassing clouds.6 mph54%29.75 "Hg10 mi
10:53 PM78 °FPassing clouds.6 mph46%29.74 "Hg10 mi
9:53 PM79 °FPassing clouds.7 mph42%29.73 "Hg10 mi
8:53 PM81 °FPassing clouds.6 mph37%29.72 "Hg10 mi
7:53 PM83 °FPartly sunny.8 mph31%29.70 "Hg10 mi
Weather by CustomWeather, © 2014

See weather overviewHow to use our weather pages